Tracking 35331 objects as of 17-Sep-2026
HD Live streaming from Space Station
objects crossing your sky now

COSMOS 2306 DEB


COSMOS 2306 DEB is no longer on orbit


NORAD ID: 26594
Int'l Code: 1995-008W
Launch date: March 2, 1995
Source: Commonwealth of Independent States (former USSR) (CIS)
Launch site: PLESETSK MISSILE AND SPACE COMPLEX (PKMTR)
Decay date: 2000-10-29

Note: This is SATELLITE DEBRIS
Your satellite tracking list
Your tracking list is empty




NASA's NSSDC Master Catalog

Two Line Element Set (TLE):
1 26594U 95008W   00303.68271694  .85789722  75119-5  12423-2 0  9997
2 26594 065.8035 222.9727 0020656 347.1334 083.8163 16.46963373    29
Source of the keplerian elements: AFSPC